Year,Month,Day,Hour,Minute,Value (Times are PST for temperature in C)
2015,10,15,00,00,7.10
2015,10,15,00,01,7.10
2015,10,15,00,02,7.10
2015,10,15,00,03,7.10
2015,10,15,00,04,7.10
2015,10,15,00,05,7.10
2015,10,15,00,06,7.10
2015,10,15,00,07,7.00
2015,10,15,00,08,7.00
2015,10,15,00,09,7.00
2015,10,15,00,10,7.00
2015,10,15,00,11,7.00
2015,10,15,00,12,7.10
2015,10,15,00,13,7.10
2015,10,15,00,14,7.10
2015,10,15,00,15,7.10
2015,10,15,00,16,7.00
2015,10,15,00,17,7.00
2015,10,15,00,18,7.00
2015,10,15,00,19,7.00
2015,10,15,00,20,7.00
2015,10,15,00,21,7.00
2015,10,15,00,22,7.00
2015,10,15,00,23,7.00
2015,10,15,00,24,7.00
2015,10,15,00,25,7.00
2015,10,15,00,26,6.90
2015,10,15,00,27,6.90
2015,10,15,00,28,6.90
2015,10,15,00,29,6.90
2015,10,15,00,30,6.90
2015,10,15,00,31,6.90
2015,10,15,00,32,6.90
2015,10,15,00,33,6.90
2015,10,15,00,34,6.90
2015,10,15,00,35,6.90
2015,10,15,00,36,6.90
2015,10,15,00,37,6.90
2015,10,15,00,38,6.80
2015,10,15,00,39,6.80
2015,10,15,00,40,6.80
2015,10,15,00,41,6.80
2015,10,15,00,42,6.80
2015,10,15,00,43,6.80
2015,10,15,00,44,6.90
2015,10,15,00,45,6.90
2015,10,15,00,46,6.80
2015,10,15,00,47,6.80
2015,10,15,00,48,6.90
2015,10,15,00,49,6.90
2015,10,15,00,50,6.90
2015,10,15,00,51,6.90
2015,10,15,00,52,6.90
2015,10,15,00,53,6.90
2015,10,15,00,54,6.90
2015,10,15,00,55,6.80
2015,10,15,00,56,6.90
2015,10,15,00,57,6.90
2015,10,15,00,58,6.90
2015,10,15,00,59,6.90
2015,10,15,01,00,6.90
2015,10,15,01,01,6.90
2015,10,15,01,02,6.90
2015,10,15,01,03,6.90
2015,10,15,01,04,6.90
2015,10,15,01,05,6.90
2015,10,15,01,06,6.90
2015,10,15,01,07,6.80
2015,10,15,01,08,6.80
2015,10,15,01,09,6.80
2015,10,15,01,10,6.80
2015,10,15,01,11,6.80
2015,10,15,01,12,6.80
2015,10,15,01,13,6.80
2015,10,15,01,14,6.80
2015,10,15,01,15,6.80
2015,10,15,01,16,6.80
2015,10,15,01,17,6.80
2015,10,15,01,18,6.80
2015,10,15,01,19,6.70
2015,10,15,01,20,6.70
2015,10,15,01,21,6.70
2015,10,15,01,22,6.70
2015,10,15,01,23,6.70
2015,10,15,01,24,6.70
2015,10,15,01,25,6.70
2015,10,15,01,26,6.70
2015,10,15,01,27,6.70
2015,10,15,01,28,6.70
2015,10,15,01,29,6.70
2015,10,15,01,30,6.60
2015,10,15,01,31,6.60
2015,10,15,01,32,6.60
2015,10,15,01,33,6.60
2015,10,15,01,34,6.60
2015,10,15,01,35,6.60
2015,10,15,01,36,6.60
2015,10,15,01,37,6.60
2015,10,15,01,38,6.60
2015,10,15,01,39,6.60
2015,10,15,01,40,6.60
2015,10,15,01,41,6.60
2015,10,15,01,42,6.60
2015,10,15,01,43,6.50
2015,10,15,01,44,6.50
2015,10,15,01,45,6.50
2015,10,15,01,46,6.40
2015,10,15,01,47,6.40
2015,10,15,01,48,6.40
2015,10,15,01,49,6.40
2015,10,15,01,50,6.40
2015,10,15,01,51,6.40
2015,10,15,01,52,6.40
2015,10,15,01,53,6.40
2015,10,15,01,54,6.40
2015,10,15,01,55,6.40
2015,10,15,01,56,6.30
2015,10,15,01,57,6.30
2015,10,15,01,58,6.30
2015,10,15,01,59,6.30
2015,10,15,02,00,6.30
2015,10,15,02,01,6.30
2015,10,15,02,02,6.30
2015,10,15,02,03,6.30
2015,10,15,02,04,6.30
2015,10,15,02,05,6.30
2015,10,15,02,06,6.30
2015,10,15,02,07,6.30
2015,10,15,02,08,6.30
2015,10,15,02,09,6.30
2015,10,15,02,10,6.30
2015,10,15,02,11,6.30
2015,10,15,02,12,6.30
2015,10,15,02,13,6.30
2015,10,15,02,14,6.30
2015,10,15,02,15,6.30
2015,10,15,02,16,6.30
2015,10,15,02,17,6.20
2015,10,15,02,18,6.20
2015,10,15,02,19,6.20
2015,10,15,02,20,6.20
2015,10,15,02,21,6.20
2015,10,15,02,22,6.20
2015,10,15,02,23,6.20
2015,10,15,02,24,6.20
2015,10,15,02,25,6.20
2015,10,15,02,26,6.20
2015,10,15,02,27,6.10
2015,10,15,02,28,6.10
2015,10,15,02,29,6.10
2015,10,15,02,30,6.10
2015,10,15,02,31,6.10
2015,10,15,02,32,6.10
2015,10,15,02,33,6.10
2015,10,15,02,34,6.10
2015,10,15,02,35,6.10
2015,10,15,02,36,6.10
2015,10,15,02,37,6.10
2015,10,15,02,38,6.10
2015,10,15,02,39,6.10
2015,10,15,02,40,6.10
2015,10,15,02,41,6.10
2015,10,15,02,42,6.10
2015,10,15,02,43,6.10
2015,10,15,02,44,6.10
2015,10,15,02,45,6.10
2015,10,15,02,46,6.10
2015,10,15,02,47,6.10
2015,10,15,02,48,6.00
2015,10,15,02,49,6.00
2015,10,15,02,50,6.00
2015,10,15,02,51,6.00
2015,10,15,02,52,5.90
2015,10,15,02,53,5.90
2015,10,15,02,54,5.90
2015,10,15,02,55,5.90
2015,10,15,02,56,5.90
2015,10,15,02,57,5.90
2015,10,15,02,58,5.90
2015,10,15,02,59,5.90
2015,10,15,03,00,5.80
2015,10,15,03,01,5.80
2015,10,15,03,02,5.80
2015,10,15,03,03,5.80
2015,10,15,03,04,5.80
2015,10,15,03,05,5.80
2015,10,15,03,06,5.80
2015,10,15,03,07,5.80
2015,10,15,03,08,5.80
2015,10,15,03,09,5.80
2015,10,15,03,10,5.80
2015,10,15,03,11,5.80
2015,10,15,03,12,5.80
2015,10,15,03,13,5.80
2015,10,15,03,14,5.80
2015,10,15,03,15,5.80
2015,10,15,03,16,5.80
2015,10,15,03,17,5.70
2015,10,15,03,18,5.70
2015,10,15,03,19,5.70
2015,10,15,03,20,5.70
2015,10,15,03,21,5.70
2015,10,15,03,22,5.70
2015,10,15,03,23,5.70
2015,10,15,03,24,5.70
2015,10,15,03,25,5.70
2015,10,15,03,26,5.70
2015,10,15,03,27,5.70
2015,10,15,03,28,5.70
2015,10,15,03,29,5.70
2015,10,15,03,30,5.70
2015,10,15,03,31,5.70
2015,10,15,03,32,5.70
2015,10,15,03,33,5.70
2015,10,15,03,34,5.60
2015,10,15,03,35,5.70
2015,10,15,03,36,5.70
2015,10,15,03,37,5.70
2015,10,15,03,38,5.70
2015,10,15,03,39,5.70
2015,10,15,03,40,5.70
2015,10,15,03,41,5.70
2015,10,15,03,42,5.70
2015,10,15,03,43,5.70
2015,10,15,03,44,5.70
2015,10,15,03,45,5.70
2015,10,15,03,46,5.70
2015,10,15,03,47,5.60
2015,10,15,03,48,5.60
2015,10,15,03,49,5.60
2015,10,15,03,50,5.60
2015,10,15,03,51,5.60
2015,10,15,03,52,5.60
2015,10,15,03,53,5.60
2015,10,15,03,54,5.60
2015,10,15,03,55,5.60
2015,10,15,03,56,5.60
2015,10,15,03,57,5.60
2015,10,15,03,58,5.50
2015,10,15,03,59,5.50
2015,10,15,04,00,5.50
2015,10,15,04,01,5.50
2015,10,15,04,02,5.50
2015,10,15,04,03,5.50
2015,10,15,04,04,5.50
2015,10,15,04,05,5.50
2015,10,15,04,06,5.60
2015,10,15,04,07,5.60
2015,10,15,04,08,5.60
2015,10,15,04,09,5.60
2015,10,15,04,10,5.60
2015,10,15,04,11,5.60
2015,10,15,04,12,5.60
2015,10,15,04,13,5.60
2015,10,15,04,14,5.60
2015,10,15,04,15,5.60
2015,10,15,04,16,5.60
2015,10,15,04,17,5.60
2015,10,15,04,18,5.60
2015,10,15,04,19,5.60
2015,10,15,04,20,5.60
2015,10,15,04,21,5.60
2015,10,15,04,22,5.60
2015,10,15,04,23,5.60
2015,10,15,04,24,5.60
2015,10,15,04,25,5.60
2015,10,15,04,26,5.50
2015,10,15,04,27,5.50
2015,10,15,04,28,5.50
2015,10,15,04,29,5.50
2015,10,15,04,30,5.50
2015,10,15,04,31,5.50
2015,10,15,04,32,5.50
2015,10,15,04,33,5.50
2015,10,15,04,34,5.50
2015,10,15,04,35,5.40
2015,10,15,04,36,5.40
2015,10,15,04,37,5.40
2015,10,15,04,38,5.40
2015,10,15,04,39,5.40
2015,10,15,04,40,5.40
2015,10,15,04,41,5.40
2015,10,15,04,42,5.40
2015,10,15,04,43,5.40
2015,10,15,04,44,5.40
2015,10,15,04,45,5.40
2015,10,15,04,46,5.30
2015,10,15,04,47,5.30
2015,10,15,04,48,5.30
2015,10,15,04,49,5.30
2015,10,15,04,50,5.30
2015,10,15,04,51,5.30
2015,10,15,04,52,5.30
2015,10,15,04,53,5.30
2015,10,15,04,54,5.30
2015,10,15,04,55,5.30
2015,10,15,04,56,5.20
2015,10,15,04,57,5.20
2015,10,15,04,58,5.20
2015,10,15,04,59,5.20
2015,10,15,05,00,5.20
2015,10,15,05,01,5.20
2015,10,15,05,02,5.20
2015,10,15,05,03,5.20
2015,10,15,05,04,5.20
2015,10,15,05,05,5.20
2015,10,15,05,06,5.20
2015,10,15,05,07,5.20
2015,10,15,05,08,5.20
2015,10,15,05,09,5.20
2015,10,15,05,10,5.20
2015,10,15,05,11,5.20
2015,10,15,05,12,5.20
2015,10,15,05,13,5.20
2015,10,15,05,14,5.20
2015,10,15,05,15,5.20
2015,10,15,05,16,5.20
2015,10,15,05,17,5.20
2015,10,15,05,18,5.20
2015,10,15,05,19,5.20
2015,10,15,05,20,5.20
2015,10,15,05,21,5.20
2015,10,15,05,22,5.20
2015,10,15,05,23,5.20
2015,10,15,05,24,5.20
2015,10,15,05,25,5.20
2015,10,15,05,26,5.20
2015,10,15,05,27,5.20
2015,10,15,05,28,5.20
2015,10,15,05,29,5.20
2015,10,15,05,30,5.10
2015,10,15,05,31,5.10
2015,10,15,05,32,5.10
2015,10,15,05,33,5.10
2015,10,15,05,34,5.10
2015,10,15,05,35,5.10
2015,10,15,05,36,5.10
2015,10,15,05,37,5.10
2015,10,15,05,38,5.00
2015,10,15,05,39,5.00
2015,10,15,05,40,5.00
2015,10,15,05,41,5.00
2015,10,15,05,42,5.00
2015,10,15,05,43,5.00
2015,10,15,05,44,5.00
2015,10,15,05,45,5.00
2015,10,15,05,46,5.00
2015,10,15,05,47,5.00
2015,10,15,05,48,4.90
2015,10,15,05,49,4.90
2015,10,15,05,50,4.90
2015,10,15,05,51,4.90
2015,10,15,05,52,4.90
2015,10,15,05,53,4.90
2015,10,15,05,54,4.90
2015,10,15,05,55,4.90
2015,10,15,05,56,4.90
2015,10,15,05,57,4.90
2015,10,15,05,58,4.90
2015,10,15,05,59,4.90
2015,10,15,06,00,4.90
2015,10,15,06,01,4.90
2015,10,15,06,02,4.90
2015,10,15,06,03,4.90
2015,10,15,06,04,4.90
2015,10,15,06,05,4.90
2015,10,15,06,06,4.90
2015,10,15,06,07,4.90
2015,10,15,06,08,4.90
2015,10,15,06,09,4.80
2015,10,15,06,10,4.90
2015,10,15,06,11,4.90
2015,10,15,06,12,4.90
2015,10,15,06,13,4.90
2015,10,15,06,14,4.90
2015,10,15,06,15,4.90
2015,10,15,06,16,4.90
2015,10,15,06,17,4.80
2015,10,15,06,18,4.80
2015,10,15,06,19,4.80
2015,10,15,06,20,4.80
2015,10,15,06,21,4.80
2015,10,15,06,22,4.80
2015,10,15,06,23,4.80
2015,10,15,06,24,4.80
2015,10,15,06,25,4.80
2015,10,15,06,26,4.80
2015,10,15,06,27,4.80
2015,10,15,06,28,4.80
2015,10,15,06,29,4.80
2015,10,15,06,30,4.80
2015,10,15,06,31,4.80
2015,10,15,06,32,4.80
2015,10,15,06,33,4.80
2015,10,15,06,34,4.80
2015,10,15,06,35,4.80
2015,10,15,06,36,4.80
2015,10,15,06,37,4.80
2015,10,15,06,38,4.80
2015,10,15,06,39,4.80
2015,10,15,06,40,4.70
2015,10,15,06,41,4.70
2015,10,15,06,42,4.70
2015,10,15,06,43,4.70
2015,10,15,06,44,4.70
2015,10,15,06,45,4.70
2015,10,15,06,46,4.70
2015,10,15,06,47,4.70
2015,10,15,06,48,4.70
2015,10,15,06,49,4.70
2015,10,15,06,50,4.70
2015,10,15,06,51,4.70
2015,10,15,06,52,4.70
2015,10,15,06,53,4.70
2015,10,15,06,54,4.60
2015,10,15,06,55,4.60
2015,10,15,06,56,4.60
2015,10,15,06,57,4.60
2015,10,15,06,58,4.60
2015,10,15,06,59,4.60
2015,10,15,07,00,4.60
2015,10,15,07,01,4.60
2015,10,15,07,02,4.60
2015,10,15,07,03,4.60
2015,10,15,07,04,4.60
2015,10,15,07,05,4.60
2015,10,15,07,06,4.60
2015,10,15,07,07,4.60
2015,10,15,07,08,4.50
2015,10,15,07,09,4.50
2015,10,15,07,10,4.50
2015,10,15,07,11,4.50
2015,10,15,07,12,4.50
2015,10,15,07,13,4.50
2015,10,15,07,14,4.50
2015,10,15,07,15,4.50
2015,10,15,07,16,4.50
2015,10,15,07,17,4.50
2015,10,15,07,18,4.50
2015,10,15,07,19,4.50
2015,10,15,07,20,4.50
2015,10,15,07,21,4.60
2015,10,15,07,22,4.60
2015,10,15,07,23,4.60
2015,10,15,07,24,4.60
2015,10,15,07,25,4.60
2015,10,15,07,26,4.60
2015,10,15,07,27,4.60
2015,10,15,07,28,4.60
2015,10,15,07,29,4.60
2015,10,15,07,30,4.60
2015,10,15,07,31,4.50
2015,10,15,07,32,4.50
2015,10,15,07,33,4.60
2015,10,15,07,34,4.60
2015,10,15,07,35,4.60
2015,10,15,07,36,4.60
2015,10,15,07,37,4.60
2015,10,15,07,38,4.60
2015,10,15,07,39,4.60
2015,10,15,07,40,4.60
2015,10,15,07,41,4.60
2015,10,15,07,42,4.50
2015,10,15,07,43,4.50
2015,10,15,07,44,4.50
2015,10,15,07,45,4.50
2015,10,15,07,46,4.50
2015,10,15,07,47,4.50
2015,10,15,07,48,4.60
2015,10,15,07,49,4.50
2015,10,15,07,50,4.50
2015,10,15,07,51,4.50
2015,10,15,07,52,4.50
2015,10,15,07,53,4.50
2015,10,15,07,54,4.50
2015,10,15,07,55,4.50
2015,10,15,07,56,4.50
2015,10,15,07,57,4.50
2015,10,15,07,58,4.50
2015,10,15,07,59,4.50
2015,10,15,08,00,4.50
2015,10,15,08,01,4.50
2015,10,15,08,02,4.50
2015,10,15,08,03,4.50
2015,10,15,08,04,4.50
2015,10,15,08,05,4.40
2015,10,15,08,06,4.40
2015,10,15,08,07,4.40
2015,10,15,08,08,4.40
2015,10,15,08,09,4.40
2015,10,15,08,10,4.40
2015,10,15,08,11,4.40
2015,10,15,08,12,4.50
2015,10,15,08,13,4.40
2015,10,15,08,14,4.50
2015,10,15,08,15,4.50
2015,10,15,08,16,4.50
2015,10,15,08,17,4.50
2015,10,15,08,18,4.50
2015,10,15,08,19,4.50
2015,10,15,08,20,4.50
2015,10,15,08,21,4.50
2015,10,15,08,22,4.50
2015,10,15,08,23,4.50
2015,10,15,08,24,4.50
2015,10,15,08,25,4.50
2015,10,15,08,26,4.50
2015,10,15,08,27,4.50
2015,10,15,08,28,4.60
2015,10,15,08,29,4.60
2015,10,15,08,30,4.60
2015,10,15,08,31,4.60
2015,10,15,08,32,4.60
2015,10,15,08,33,4.60
2015,10,15,08,34,4.60
2015,10,15,08,35,4.60
2015,10,15,08,36,4.60
2015,10,15,08,37,4.60
2015,10,15,08,38,4.60
2015,10,15,08,39,4.70
2015,10,15,08,40,4.70
2015,10,15,08,41,4.70
2015,10,15,08,42,4.70
2015,10,15,08,43,4.70
2015,10,15,08,44,4.70
2015,10,15,08,45,4.70
2015,10,15,08,46,4.70
2015,10,15,08,47,4.70
2015,10,15,08,48,4.70
2015,10,15,08,49,4.70
2015,10,15,08,50,4.70
2015,10,15,08,51,4.70
2015,10,15,08,52,4.70
2015,10,15,08,53,4.70
2015,10,15,08,54,4.80
2015,10,15,08,55,4.80
2015,10,15,08,56,4.80
2015,10,15,08,57,4.80
2015,10,15,08,58,4.80
2015,10,15,08,59,4.80
2015,10,15,09,00,4.90
2015,10,15,09,01,4.90
2015,10,15,09,02,4.90
2015,10,15,09,03,4.90
2015,10,15,09,04,4.90
2015,10,15,09,05,4.90
2015,10,15,09,06,4.90
2015,10,15,09,07,4.90
2015,10,15,09,08,4.90
2015,10,15,09,09,4.90
2015,10,15,09,10,5.00
2015,10,15,09,11,5.00
2015,10,15,09,12,5.10
2015,10,15,09,13,5.10
2015,10,15,09,14,5.10
2015,10,15,09,15,5.20
2015,10,15,09,16,5.20
2015,10,15,09,17,5.20
2015,10,15,09,18,5.30
2015,10,15,09,19,5.30
2015,10,15,09,20,5.30
2015,10,15,09,21,5.30
2015,10,15,09,22,5.30
2015,10,15,09,23,5.30
2015,10,15,09,24,5.40
2015,10,15,09,25,5.40
2015,10,15,09,26,5.40
2015,10,15,09,27,5.40
2015,10,15,09,28,5.40
2015,10,15,09,29,5.40
2015,10,15,09,30,5.50
2015,10,15,09,31,5.50
2015,10,15,09,32,5.50
2015,10,15,09,33,5.50
2015,10,15,09,34,5.50
2015,10,15,09,35,5.60
2015,10,15,09,36,5.60
2015,10,15,09,37,5.70
2015,10,15,09,38,5.70
2015,10,15,09,39,5.70
2015,10,15,09,40,5.70
2015,10,15,09,41,5.70
2015,10,15,09,42,5.80
2015,10,15,09,43,5.80
2015,10,15,09,44,5.80
2015,10,15,09,45,5.80
2015,10,15,09,46,5.80
2015,10,15,09,47,5.80
2015,10,15,09,48,5.90
2015,10,15,09,49,5.90
2015,10,15,09,50,5.90
2015,10,15,09,51,5.90
2015,10,15,09,52,5.90
2015,10,15,09,53,5.90
2015,10,15,09,54,5.90
2015,10,15,09,55,5.90
2015,10,15,09,56,6.00
2015,10,15,09,57,6.00
2015,10,15,09,58,6.10
2015,10,15,09,59,6.10
2015,10,15,10,00,6.10
2015,10,15,10,01,6.20
2015,10,15,10,02,6.20
2015,10,15,10,03,6.20
2015,10,15,10,04,6.30
2015,10,15,10,05,6.30
2015,10,15,10,06,6.30
2015,10,15,10,07,6.40
2015,10,15,10,08,6.40
2015,10,15,10,09,6.50
2015,10,15,10,10,6.50
2015,10,15,10,11,6.60
2015,10,15,10,12,6.60
2015,10,15,10,13,6.70
2015,10,15,10,14,6.70
2015,10,15,10,15,6.80
2015,10,15,10,16,6.80
2015,10,15,10,17,6.90
2015,10,15,10,18,6.90
2015,10,15,10,19,7.00
2015,10,15,10,20,7.00
2015,10,15,10,21,7.00
2015,10,15,10,22,7.10
2015,10,15,10,23,7.20
2015,10,15,10,24,7.20
2015,10,15,10,25,7.20
2015,10,15,10,26,7.20
2015,10,15,10,27,7.20
2015,10,15,10,28,7.30
2015,10,15,10,29,7.30
2015,10,15,10,30,7.30
2015,10,15,10,31,7.40
2015,10,15,10,32,7.40
2015,10,15,10,33,7.40
2015,10,15,10,34,7.50
2015,10,15,10,35,7.50
2015,10,15,10,36,7.60
2015,10,15,10,37,7.60
2015,10,15,10,38,7.70
2015,10,15,10,39,7.70
2015,10,15,10,40,7.80
2015,10,15,10,41,7.90
2015,10,15,10,42,8.00
2015,10,15,10,43,8.00
2015,10,15,10,44,8.10
2015,10,15,10,45,8.10
2015,10,15,10,46,8.10
2015,10,15,10,47,8.10
2015,10,15,10,48,8.20
2015,10,15,10,49,8.20
2015,10,15,10,50,8.30
2015,10,15,10,51,8.30
2015,10,15,10,52,8.40
2015,10,15,10,53,8.40
2015,10,15,10,54,8.50
2015,10,15,10,55,8.50
2015,10,15,10,56,8.60
2015,10,15,10,57,8.60
2015,10,15,10,58,8.70
2015,10,15,10,59,8.80
2015,10,15,11,00,8.80
2015,10,15,11,01,8.90
2015,10,15,11,02,8.90
2015,10,15,11,03,8.90
2015,10,15,11,04,8.90
2015,10,15,11,05,8.90
2015,10,15,11,06,8.90
2015,10,15,11,07,8.90
2015,10,15,11,08,8.90
2015,10,15,11,09,8.90
2015,10,15,11,10,8.90
2015,10,15,11,11,9.00
2015,10,15,11,12,9.00
2015,10,15,11,13,9.10
2015,10,15,11,14,9.10
2015,10,15,11,15,9.20
2015,10,15,11,16,9.30
2015,10,15,11,17,9.30
2015,10,15,11,18,9.40
2015,10,15,11,19,9.50
2015,10,15,11,20,9.60
2015,10,15,11,21,9.60
2015,10,15,11,22,9.60
2015,10,15,11,23,9.60
2015,10,15,11,24,9.60
2015,10,15,11,25,9.60
2015,10,15,11,26,9.60
2015,10,15,11,27,9.70
2015,10,15,11,28,9.70
2015,10,15,11,29,9.80
2015,10,15,11,30,9.80
2015,10,15,11,31,9.80
2015,10,15,11,32,9.80
2015,10,15,11,33,9.90
2015,10,15,11,34,9.90
2015,10,15,11,35,9.90
2015,10,15,11,36,10.00
2015,10,15,11,37,10.10
2015,10,15,11,38,10.20
2015,10,15,11,39,10.20
2015,10,15,11,40,10.20
2015,10,15,11,41,10.30
2015,10,15,11,42,10.30
2015,10,15,11,43,10.40
2015,10,15,11,44,10.50
2015,10,15,11,45,10.60
2015,10,15,11,46,10.60
2015,10,15,11,47,10.70
2015,10,15,11,48,10.70
2015,10,15,11,49,10.80
2015,10,15,11,50,10.80
2015,10,15,11,51,10.80
2015,10,15,11,52,10.90
2015,10,15,11,53,10.90
2015,10,15,11,54,11.00
2015,10,15,11,55,11.00
2015,10,15,11,56,11.10
2015,10,15,11,57,11.10
2015,10,15,11,58,11.10
2015,10,15,11,59,11.20
2015,10,15,12,00,11.20
2015,10,15,12,01,11.30
2015,10,15,12,02,11.30
2015,10,15,12,03,11.30
2015,10,15,12,04,11.40
2015,10,15,12,05,11.40
2015,10,15,12,06,11.40
2015,10,15,12,07,11.50
2015,10,15,12,08,11.50
2015,10,15,12,09,11.60
2015,10,15,12,10,11.60
2015,10,15,12,11,11.60
2015,10,15,12,12,11.70
2015,10,15,12,13,11.70
2015,10,15,12,14,11.70
2015,10,15,12,15,11.80
2015,10,15,12,16,11.80
2015,10,15,12,17,11.80
2015,10,15,12,18,11.90
2015,10,15,12,19,11.90
2015,10,15,12,20,11.90
2015,10,15,12,21,11.90
2015,10,15,12,22,12.00
2015,10,15,12,23,12.00
2015,10,15,12,24,12.10
2015,10,15,12,25,12.10
2015,10,15,12,26,12.10
2015,10,15,12,27,12.20
2015,10,15,12,28,12.20
2015,10,15,12,29,12.20
2015,10,15,12,30,12.20
2015,10,15,12,31,12.30
2015,10,15,12,32,12.30
2015,10,15,12,33,12.40
2015,10,15,12,34,12.40
2015,10,15,12,35,12.50
2015,10,15,12,36,12.60
2015,10,15,12,37,12.70
2015,10,15,12,38,12.80
2015,10,15,12,39,12.90
2015,10,15,12,40,13.00
2015,10,15,12,41,13.00
2015,10,15,12,42,13.10
2015,10,15,12,43,13.10
2015,10,15,12,44,13.10
2015,10,15,12,45,13.10
2015,10,15,12,46,13.10
2015,10,15,12,47,13.20
2015,10,15,12,48,13.20
2015,10,15,12,49,13.20
2015,10,15,12,50,13.30
2015,10,15,12,51,13.30
2015,10,15,12,52,13.30
2015,10,15,12,53,13.40
2015,10,15,12,54,13.50
2015,10,15,12,55,13.50
2015,10,15,12,56,13.50
2015,10,15,12,57,13.60
2015,10,15,12,58,13.60
2015,10,15,12,59,13.60
2015,10,15,13,00,13.70
2015,10,15,13,01,13.70
2015,10,15,13,02,13.70
2015,10,15,13,03,13.80
2015,10,15,13,04,13.80
2015,10,15,13,05,13.90
2015,10,15,13,06,13.90
2015,10,15,13,07,14.00
2015,10,15,13,08,14.00
2015,10,15,13,09,14.10
2015,10,15,13,10,14.20
2015,10,15,13,11,14.20
2015,10,15,13,12,14.30
2015,10,15,13,13,14.40
2015,10,15,13,14,14.50
2015,10,15,13,15,14.70
2015,10,15,13,16,14.80
2015,10,15,13,17,14.80
2015,10,15,13,18,14.90
2015,10,15,13,19,15.00
2015,10,15,13,20,15.10
2015,10,15,13,21,15.10
2015,10,15,13,22,15.20
2015,10,15,13,23,15.20
2015,10,15,13,24,15.30
2015,10,15,13,25,15.30
2015,10,15,13,26,15.40
2015,10,15,13,27,15.40
2015,10,15,13,28,15.50
2015,10,15,13,29,15.60
2015,10,15,13,30,15.60
2015,10,15,13,31,15.70
2015,10,15,13,32,15.70
2015,10,15,13,33,15.70
2015,10,15,13,34,15.70
2015,10,15,13,35,15.70
2015,10,15,13,36,15.70
2015,10,15,13,37,15.70
2015,10,15,13,38,15.80
2015,10,15,13,39,15.80
2015,10,15,13,40,15.90
2015,10,15,13,41,16.00
2015,10,15,13,42,16.00
2015,10,15,13,43,16.10
2015,10,15,13,44,16.10
2015,10,15,13,45,16.20
2015,10,15,13,46,16.20
2015,10,15,13,47,16.30
2015,10,15,13,48,16.30
2015,10,15,13,49,16.40
2015,10,15,13,50,16.50
2015,10,15,13,51,16.50
2015,10,15,13,52,16.60
2015,10,15,13,53,16.60
2015,10,15,13,54,16.70
2015,10,15,13,55,16.70
2015,10,15,13,56,16.70
2015,10,15,13,57,16.80
2015,10,15,13,58,16.80
2015,10,15,13,59,16.90
2015,10,15,14,00,16.90
2015,10,15,14,01,17.00
2015,10,15,14,02,17.00
2015,10,15,14,03,17.10
2015,10,15,14,04,17.10
2015,10,15,14,05,17.20
2015,10,15,14,06,17.20
2015,10,15,14,07,17.30
2015,10,15,14,08,17.40
2015,10,15,14,09,17.50
2015,10,15,14,10,17.60
2015,10,15,14,11,17.70
2015,10,15,14,12,17.80
2015,10,15,14,13,17.80
2015,10,15,14,14,17.80
2015,10,15,14,15,17.80
2015,10,15,14,16,17.80
2015,10,15,14,17,17.90
2015,10,15,14,18,17.90
2015,10,15,14,19,17.90
2015,10,15,14,20,17.90
2015,10,15,14,21,18.00
2015,10,15,14,22,18.00
2015,10,15,14,23,18.00
2015,10,15,14,24,17.90
2015,10,15,14,25,17.90
2015,10,15,14,26,17.90
2015,10,15,14,27,17.90
2015,10,15,14,28,17.90
2015,10,15,14,29,18.00
2015,10,15,14,30,18.00
2015,10,15,14,31,18.00
2015,10,15,14,32,18.10
2015,10,15,14,33,18.10
2015,10,15,14,34,18.10
2015,10,15,14,35,18.20
2015,10,15,14,36,18.20
2015,10,15,14,37,18.30
2015,10,15,14,38,18.30
2015,10,15,14,39,18.30
2015,10,15,14,40,18.40
2015,10,15,14,41,18.40
2015,10,15,14,42,18.40
2015,10,15,14,43,18.50
2015,10,15,14,44,18.50
2015,10,15,14,45,18.60
2015,10,15,14,46,18.70
2015,10,15,14,47,18.70
2015,10,15,14,48,18.80
2015,10,15,14,49,18.80
2015,10,15,14,50,18.90
2015,10,15,14,51,18.90
2015,10,15,14,52,19.00
2015,10,15,14,53,19.00
2015,10,15,14,54,19.10
2015,10,15,14,55,19.00
2015,10,15,14,56,19.00
2015,10,15,14,57,18.90
2015,10,15,14,58,18.90
2015,10,15,14,59,18.90
2015,10,15,15,00,18.90
2015,10,15,15,01,18.90
2015,10,15,15,02,19.00
2015,10,15,15,03,19.00
2015,10,15,15,04,19.10
2015,10,15,15,05,19.10
2015,10,15,15,06,19.20
2015,10,15,15,07,19.20
2015,10,15,15,08,19.20
2015,10,15,15,09,19.30
2015,10,15,15,10,19.40
2015,10,15,15,11,19.40
2015,10,15,15,12,19.50
2015,10,15,15,13,19.50
2015,10,15,15,14,19.50
2015,10,15,15,15,19.60
2015,10,15,15,16,19.60
2015,10,15,15,17,19.60
2015,10,15,15,18,19.70
2015,10,15,15,19,19.70
2015,10,15,15,20,19.70
2015,10,15,15,21,19.70
2015,10,15,15,22,19.70
2015,10,15,15,23,19.70
2015,10,15,15,24,19.70
2015,10,15,15,25,19.70
2015,10,15,15,26,19.80
2015,10,15,15,27,19.80
2015,10,15,15,28,19.80
2015,10,15,15,29,19.80
2015,10,15,15,30,19.90
2015,10,15,15,31,19.90
2015,10,15,15,32,19.90
2015,10,15,15,33,19.90
2015,10,15,15,34,19.90
2015,10,15,15,35,19.90
2015,10,15,15,36,19.90
2015,10,15,15,37,19.80
2015,10,15,15,38,19.80
2015,10,15,15,39,19.80
2015,10,15,15,40,19.80
2015,10,15,15,41,19.90
2015,10,15,15,42,19.90
2015,10,15,15,43,19.90
2015,10,15,15,44,19.90
2015,10,15,15,45,19.90
2015,10,15,15,46,19.90
2015,10,15,15,47,19.90
2015,10,15,15,48,19.90
2015,10,15,15,49,19.80
2015,10,15,15,50,19.80
2015,10,15,15,51,19.70
2015,10,15,15,52,19.70
2015,10,15,15,53,19.60
2015,10,15,15,54,19.50
2015,10,15,15,55,19.50
2015,10,15,15,56,19.40
2015,10,15,15,57,19.40
2015,10,15,15,58,19.40
2015,10,15,15,59,19.40
2015,10,15,16,00,19.40
2015,10,15,16,01,19.40
2015,10,15,16,02,19.40
2015,10,15,16,03,19.30
2015,10,15,16,04,19.30
2015,10,15,16,05,19.30
2015,10,15,16,06,19.30
2015,10,15,16,07,19.30
2015,10,15,16,08,19.30
2015,10,15,16,09,19.30
2015,10,15,16,10,19.20
2015,10,15,16,11,19.20
2015,10,15,16,12,19.00
2015,10,15,16,13,18.90
2015,10,15,16,14,18.80
2015,10,15,16,15,18.70
2015,10,15,16,16,18.60
2015,10,15,16,17,18.60
2015,10,15,16,18,18.50
2015,10,15,16,19,18.50
2015,10,15,16,20,18.50
2015,10,15,16,21,18.40
2015,10,15,16,22,18.30
2015,10,15,16,23,18.20
2015,10,15,16,24,18.10
2015,10,15,16,25,18.00
2015,10,15,16,26,18.00
2015,10,15,16,27,17.90
2015,10,15,16,28,17.90
2015,10,15,16,29,17.90
2015,10,15,16,30,17.90
2015,10,15,16,31,17.90
2015,10,15,16,32,17.90
2015,10,15,16,33,17.90
2015,10,15,16,34,17.80
2015,10,15,16,35,17.80
2015,10,15,16,36,17.70
2015,10,15,16,37,17.70
2015,10,15,16,38,17.60
2015,10,15,16,39,17.50
2015,10,15,16,40,17.50
2015,10,15,16,41,17.40
2015,10,15,16,42,17.40
2015,10,15,16,43,17.30
2015,10,15,16,44,17.30
2015,10,15,16,45,17.20
2015,10,15,16,46,17.10
2015,10,15,16,47,17.10
2015,10,15,16,48,17.10
2015,10,15,16,49,17.10
2015,10,15,16,50,17.10
2015,10,15,16,51,17.10
2015,10,15,16,52,17.00
2015,10,15,16,53,17.00
2015,10,15,16,54,17.00
2015,10,15,16,55,16.90
2015,10,15,16,56,16.90
2015,10,15,16,57,16.90
2015,10,15,16,58,16.90
2015,10,15,16,59,16.80
2015,10,15,17,00,16.80
2015,10,15,17,01,16.70
2015,10,15,17,02,16.70
2015,10,15,17,03,16.60
2015,10,15,17,04,16.60
2015,10,15,17,05,16.50
2015,10,15,17,06,16.40
2015,10,15,17,07,16.40
2015,10,15,17,08,16.30
2015,10,15,17,09,16.30
2015,10,15,17,10,16.30
2015,10,15,17,11,16.20
2015,10,15,17,12,16.20
2015,10,15,17,13,16.30
2015,10,15,17,14,16.30
2015,10,15,17,15,16.30
2015,10,15,17,16,16.40
2015,10,15,17,17,16.40
2015,10,15,17,18,16.30
2015,10,15,17,19,16.20
2015,10,15,17,20,16.10
2015,10,15,17,21,16.00
2015,10,15,17,22,15.90
2015,10,15,17,23,15.80
2015,10,15,17,24,15.70
2015,10,15,17,25,15.60
2015,10,15,17,26,15.50
2015,10,15,17,27,15.30
2015,10,15,17,28,15.30
2015,10,15,17,29,15.20
2015,10,15,17,30,15.10
2015,10,15,17,31,15.10
2015,10,15,17,32,15.00
2015,10,15,17,33,15.00
2015,10,15,17,34,14.90
2015,10,15,17,35,14.90
2015,10,15,17,36,14.90
2015,10,15,17,37,14.80
2015,10,15,17,38,14.80
2015,10,15,17,39,14.70
2015,10,15,17,40,14.70
2015,10,15,17,41,14.60
2015,10,15,17,42,14.50
2015,10,15,17,43,14.50
2015,10,15,17,44,14.40
2015,10,15,17,45,14.30
2015,10,15,17,46,14.30
2015,10,15,17,47,14.30
2015,10,15,17,48,14.20
2015,10,15,17,49,14.10